Location: Newark
(34.9500°N, 139.9667°E)
Time: 02:12:47
(UTC+00:00)

Vanguard 1 Rocket - Pass Details

Date: 10 December 2019
Orbit: 651 x 4226 km, 34.3° (Epoch: 28 January)

Event Time Altitude Azimuth Distance (km) Brightness Sun altitude
Rises 09:29:34 0° 220° (SW) 8,433 13.1 -24.1°
Reaches altitude 10° 09:36:12 10° 215° (SW) 7,233 12.5 -25.4°
Maximum altitude 09:57:12 45° 152° (SSE) 3,685 10.2 -29.7°
Enters shadow 10:01:58 38° 117° (ESE) 3,538 9.9 -30.6°
Drops below altitude 10° 10:09:28 10° 85° (E) 4,419 - -32.1°
Sets 10:12:22 0° 78° (ENE) 5,043 - -32.7°
